Rifle, CO

1:56 AM MST on February 24, 2017 (GMT -0700)
Garfield County Regional

Weather History for KRIL - February, 2013

Change the Weather History Date:

Thursday, February 14, 2013

  Actual Average Record
Temperature  
Mean Temperature 31 °F 30 °F  
Max Temperature 40 °F 42 °F 61 °F (2015)
Min Temperature 22 °F 19 °F -10 °F (1933)
Degree Days  
Heating Degree Days 34 35  
Month to date heating degree days 529 512  
Since 1 July heating degree days 4527 4547  
Cooling Degree Days 0 0  
Month to date cooling degree days 0 0  
Year to date cooling degree days 0 0  
Moisture  
Dew Point 19 °F    
Average Humidity 60    
Maximum Humidity 85    
Minimum Humidity 34    
Precipitation  
Precipitation T in 0.03 in 0.38 in (1956)
Month to date precipitation 0.01 0.35  
Year to date precipitation 0.71 1.16  
Sea Level Pressure  
Sea Level Pressure 30.27 in    
Wind  
Wind Speed 5 mph (WSW)    
Max Wind Speed 20 mph    
Max Gust Speed 25 mph    
Visibility 10 miles    
Events Snow    
T = Trace of Precipitation, MM = Missing Value Source: NWS Daily Summary

Daily Weather History Graph

Daily Weather History Graph

Search for Another Location

Airport or City:

Trip Planner

Search our weather history database for the weather conditions in past years. The results will help you decide how hot, cold, wet, or windy it might be!

Date:

Astronomy

Feb. 14, 2013 Rise Set
Actual Time 7:03 AM MST 5:46 PM MST
Civil Twilight 6:36 AM MST 6:14 PM MST
Nautical Twilight 6:04 AM MST 6:45 PM MST
Astronomical Twilight 5:33 AM MST 7:17 PM MST
Moon 9:08 AM MST (2/14) 10:51 PM MST (2/14)
Length of Visible Light 11h 38m
Length of Day
10h 42m
Waxing Crescent, 22% of the Moon is Illuminated
Feb 14
Waxing Crescent
Feb 17
First Quarter
Feb 25
Full
Mar 4
Last Quarter
Mar 11
New

Hourly Weather History & Observations

Time (MST) Temp. Windchill Dew Point Humidity Pressure Visibility Wind Dir Wind Speed Gust Speed Precip Events Conditions
12:53 AM 25.0 °F - 18.0 °F 75% 30.23 in 10.0 mi Calm Calm - N/A   Clear
1:53 AM 25.0 °F 18.1 °F 18.0 °F 75% 30.22 in 10.0 mi SSW 5.8 mph - N/A   Partly Cloudy
2:53 AM 26.1 °F 21.9 °F 19.0 °F 75% 30.22 in 10.0 mi Variable 3.5 mph - N/A   Overcast
3:53 AM 26.1 °F 21.9 °F 19.0 °F 75% 30.19 in 10.0 mi SW 3.5 mph - N/A   Overcast
4:53 AM 26.1 °F 21.9 °F 19.9 °F 78% 30.22 in 10.0 mi Variable 3.5 mph - N/A   Overcast
5:53 AM 27.0 °F - 19.9 °F 75% 30.24 in 9.0 mi Calm Calm - 0.00 in Snow Light Snow
6:36 AM 26.6 °F 22.6 °F 21.2 °F 80% 30.18 in 8.0 mi East 3.5 mph - 0.00 in Snow Light Snow
6:53 AM 26.1 °F 20.5 °F 21.9 °F 84% 30.25 in 10.0 mi Variable 4.6 mph - 0.00 in   Overcast
7:45 AM 26.6 °F - 23.0 °F 86% 30.20 in 2.5 mi Calm Calm - 0.00 in Snow Light Snow
7:53 AM 26.1 °F 20.5 °F 21.9 °F 84% 30.28 in 8.0 mi Variable 4.6 mph - 0.00 in   Overcast
8:53 AM 28.0 °F - 24.1 °F 85% 30.30 in 10.0 mi Calm Calm - N/A   Overcast
9:53 AM 30.0 °F - 23.0 °F 75% 30.30 in 10.0 mi Calm Calm - N/A   Overcast
10:53 AM 30.9 °F 25.2 °F 19.9 °F 64% 30.32 in 10.0 mi WNW 5.8 mph - N/A   Overcast
11:53 AM 33.1 °F - 21.0 °F 61% 30.31 in 10.0 mi Calm Calm - N/A   Overcast
12:53 PM 36.0 °F 33.3 °F 21.0 °F 55% 30.27 in 10.0 mi Variable 3.5 mph - N/A   Overcast
1:53 PM 37.0 °F 31.0 °F 19.9 °F 50% 30.25 in 10.0 mi SW 8.1 mph - N/A   Clear
2:53 PM 39.0 °F 34.0 °F 19.0 °F 45% 30.25 in 10.0 mi Variable 6.9 mph 17.3 mph N/A   Overcast
3:53 PM 39.9 °F 31.4 °F 14.0 °F 35% 30.25 in 10.0 mi WNW 16.1 mph - N/A   Mostly Cloudy
4:53 PM 37.9 °F 30.0 °F 15.1 °F 39% 30.26 in 10.0 mi NW 12.7 mph - N/A   Mostly Cloudy
5:53 PM 36.0 °F 26.7 °F 14.0 °F 41% 30.27 in 10.0 mi West 15.0 mph - N/A   Scattered Clouds
6:53 PM 34.0 °F - 14.0 °F 44% 30.30 in 10.0 mi Calm Calm - N/A   Clear
7:53 PM 30.0 °F 21.1 °F 18.0 °F 61% 30.32 in 10.0 mi SSW 10.4 mph - N/A   Overcast
8:53 PM 25.0 °F - 16.0 °F 69% 30.34 in 10.0 mi Calm Calm - N/A   Clear
9:53 PM 23.0 °F - 16.0 °F 74% 30.35 in 10.0 mi Calm Calm - N/A   Clear
10:53 PM 24.1 °F 19.7 °F 17.1 °F 75% 30.36 in 10.0 mi WSW 3.5 mph - N/A   Overcast
11:53 PM 23.0 °F 18.4 °F 15.1 °F 72% 30.38 in 10.0 mi ESE 3.5 mph - N/A   Partly Cloudy